Zurück zum Katalog

FENGYUN 1C DEB

AktivSSO
NORAD 30805·DEBRIS·🇨🇳 China

Gestartet May 10, 1999 von Taiyuan Satellite Launch Center

Loading…

Nächste Überflüge (nächste 24 Stunden)

TLE

AktuellSource: Space-Track

Epoche: Sep 14, 2026, 21:56 UTC

1 30805U 99025AUP 26257.91390632  .00000404  00000-0  27951-3 0  9991
2 30805  98.7966 296.7366 0071447 232.8632 303.0039 14.03427119998333

Verfolge FENGYUN 1C DEB in Echtzeit mit AllMySat

Download on the App Store